Regional Weather Roundup
Issued by NWS Jackson, KY

Home | Current Version | Previous Version | Text Only | Print | Product List | Glossary Off
Versions: 1 2 3 4 5 6 7 8 9 10 11 12 13 14 15 16 17 18 19 20 21 22 23 24 25 26 27 28 29 30 31 32 33 34 35 36 37 38 39 40 41 42 43 44 45 46 47 48 49 50

000
ASUS43 KJKL 221611
RWRJKL

EAST KENTUCKY HOURLY WEATHER ROUNDUP
NATIONAL WEATHER SERVICE JACKSON KY
1200 PM EDT FRI AUG 22 2014

NOTE: "FAIR" INDICATES FEW OR NO CLOUDS BELOW 12,000 FEET WITH
NO SIGNIFICANT WEATHER AND/OR OBSTRUCTIONS TO VISIBILITY.

* THESE REPORTS ARE NOT UNDER NWS QUALITY CONTROL AND MAY NOT
  REPORT WEATHER SUCH AS PRECIPITATION AND FOG.

KYZ079-080-083-085-087-088-110-112-115-119-120-221700
...EASTERN KENTUCKY...

CITY           SKY/WX    TMP DP  RH WIND       PRES   REMARKS
JACKSON        MOSUNNY   84  74  71 CALM      30.09F HX  91
LONDON         MOSUNNY   85  72  65 SW9       30.11S HX  91
SOMERSET*      PTSUNNY   82  73  74 W10       30.11S
MONTICELLO*    MOSUNNY   87  75  67 SW8       30.12S HX  96
MIDDLESBORO*   PTSUNNY   85  72  64 W5        30.12S HX  91
HARLAN APT*    CLOUDY    82  70  65 MISG      30.13S
HAZARD APT*    SUNNY     82  73  74 SW7       30.09F
PIKEVILLE APT* CLOUDY    81  73  78 SW5       30.09F
BIG SANDY*     MOSUNNY   83  75  75 SW5       30.07F HX  91
MOREHEAD APT*  PTSUNNY   82  75  78 SW5       30.07F
$$

KYZ035-036-041-042-044-050-067-078-099-221700
...CENTRAL KENTUCKY...

CITY           SKY/WX    TMP DP  RH WIND       PRES   REMARKS
MT STERLING*   PTSUNNY   84  75  74 W7        30.07S HX  92
FLEMING/MASON* PTSUNNY   81  73  78 W8        30.05S
DANVILLE*      MOSUNNY   86  72  62 W6        30.08F HX  92
RICHMOND*      MOSUNNY   84  72  65 W9        30.07F
LEXINGTON      PTSUNNY   86  74  67 W10       30.06S HX  94
FRANKFORT      CLOUDY    84  73  69 W12       30.04S HX  90
$$

KYZ091>093-OHZ055-061-077-WVZ005-015-034-035-042-221700
...SOUTHERN OHIO/WEST VIRGINIA...

CITY           SKY/WX    TMP DP  RH WIND       PRES   REMARKS
COVINGTON      CLOUDY    77  72  84 W7        30.03
COLUMBUS       CLOUDY    78  70  76 S6        29.99F
DAYTON         CLOUDY    77  72  84 SW8       30.00S
WILMINGTON     LGT RAIN  73  71  93 S6        30.01F FOG
HUNTINGTON     CLOUDY    81  74  79 W5        30.02F
CHARLESTON     CLOUDY    77  74  90 N3        30.05S
PINEVILLE*     PTSUNNY   80  75  85 MISG      30.15F
BECKLEY        CLOUDY    75  70  84 W6        30.13F
BLUEFIELD      CLOUDY    76  70  82 W8        30.18S
$$

VAZ002-007-008-TNZ017-027-036-066-071-221700
...SOUTHWEST VIRGINIA/EAST TENNESSEE...

CITY           SKY/WX    TMP DP  RH WIND       PRES   REMARKS
WISE*          PTSUNNY   79  72  78 W10       30.19S
JONESVILLE*      N/A     84  73  70 SW8       30.14F HX  91
ABINGDON*      CLOUDY    77  73  88 W8        30.16F
BRISTOL        CLOUDY    79  72  79 CALM      30.13F
KNOXVILLE      PTSUNNY   84  73  69 SW6       30.11F HX  90
OAK RIDGE      MOSUNNY   86  73  65 VRB3      30.13S HX  93
CROSSVILLE     MOSUNNY   82  70  66 W13       30.18S
NASHVILLE      PTSUNNY   90  74  59 W10G16    30.10S HX  99
$$

...KEY TO REMARKS...
VSB - VISIBILITY IN MILES
WCI - WIND CHILL INDEX
HX  - HEAT INDEX

$$



USA.gov is the U.S. government's official web portal to all federal, state and local government web resources and services.